Year,Month,Day,Hour,Minute,Value (Times are PST for temperature in C)
2010,08,06,00,00,17.90
2010,08,06,00,01,17.90
2010,08,06,00,02,17.90
2010,08,06,00,03,17.90
2010,08,06,00,04,17.90
2010,08,06,00,05,17.90
2010,08,06,00,06,17.80
2010,08,06,00,07,17.80
2010,08,06,00,08,17.80
2010,08,06,00,09,17.80
2010,08,06,00,10,17.70
2010,08,06,00,11,17.70
2010,08,06,00,12,17.70
2010,08,06,00,13,17.70
2010,08,06,00,14,17.70
2010,08,06,00,15,17.60
2010,08,06,00,16,17.60
2010,08,06,00,17,17.60
2010,08,06,00,18,17.60
2010,08,06,00,19,17.60
2010,08,06,00,20,17.60
2010,08,06,00,21,17.60
2010,08,06,00,22,17.60
2010,08,06,00,23,17.60
2010,08,06,00,24,17.60
2010,08,06,00,25,17.60
2010,08,06,00,26,17.70
2010,08,06,00,27,17.70
2010,08,06,00,28,17.80
2010,08,06,00,29,18.00
2010,08,06,00,30,18.10
2010,08,06,00,31,18.20
2010,08,06,00,32,18.30
2010,08,06,00,33,18.40
2010,08,06,00,34,18.60
2010,08,06,00,35,18.70
2010,08,06,00,36,18.80
2010,08,06,00,37,18.90
2010,08,06,00,38,19.00
2010,08,06,00,39,19.20
2010,08,06,00,40,19.20
2010,08,06,00,41,19.30
2010,08,06,00,42,19.40
2010,08,06,00,43,19.40
2010,08,06,00,44,19.40
2010,08,06,00,45,19.50
2010,08,06,00,46,19.50
2010,08,06,00,47,19.50
2010,08,06,00,48,19.50
2010,08,06,00,49,19.50
2010,08,06,00,50,19.50
2010,08,06,00,51,19.50
2010,08,06,00,52,19.50
2010,08,06,00,53,19.50
2010,08,06,00,54,19.50
2010,08,06,00,55,19.40
2010,08,06,00,56,19.40
2010,08,06,00,57,19.40
2010,08,06,00,58,19.40
2010,08,06,00,59,19.40
2010,08,06,01,00,19.30
2010,08,06,01,01,19.30
2010,08,06,01,02,19.30
2010,08,06,01,03,19.30
2010,08,06,01,04,19.30
2010,08,06,01,05,19.20
2010,08,06,01,06,19.20
2010,08,06,01,07,19.20
2010,08,06,01,08,19.10
2010,08,06,01,09,19.10
2010,08,06,01,10,19.10
2010,08,06,01,11,19.10
2010,08,06,01,12,19.10
2010,08,06,01,13,19.20
2010,08,06,01,14,19.20
2010,08,06,01,15,19.20
2010,08,06,01,16,19.20
2010,08,06,01,17,19.30
2010,08,06,01,18,19.30
2010,08,06,01,19,19.30
2010,08,06,01,20,19.30
2010,08,06,01,21,19.40
2010,08,06,01,22,19.40
2010,08,06,01,23,19.40
2010,08,06,01,24,19.40
2010,08,06,01,25,19.40
2010,08,06,01,26,19.30
2010,08,06,01,27,19.30
2010,08,06,01,28,19.30
2010,08,06,01,29,19.30
2010,08,06,01,30,19.20
2010,08,06,01,31,19.20
2010,08,06,01,32,19.10
2010,08,06,01,33,19.10
2010,08,06,01,34,19.00
2010,08,06,01,35,19.00
2010,08,06,01,36,18.90
2010,08,06,01,37,18.90
2010,08,06,01,38,18.80
2010,08,06,01,39,18.80
2010,08,06,01,40,18.70
2010,08,06,01,41,18.70
2010,08,06,01,42,18.60
2010,08,06,01,43,18.60
2010,08,06,01,44,18.60
2010,08,06,01,45,18.50
2010,08,06,01,46,18.50
2010,08,06,01,47,18.40
2010,08,06,01,48,18.40
2010,08,06,01,49,18.40
2010,08,06,01,50,18.40
2010,08,06,01,51,18.30
2010,08,06,01,52,18.30
2010,08,06,01,53,18.30
2010,08,06,01,54,18.20
2010,08,06,01,55,18.20
2010,08,06,01,56,18.20
2010,08,06,01,57,18.20
2010,08,06,01,58,18.10
2010,08,06,01,59,18.10
2010,08,06,02,00,18.10
2010,08,06,02,01,18.00
2010,08,06,02,02,18.00
2010,08,06,02,03,18.10
2010,08,06,02,04,18.20
2010,08,06,02,05,18.30
2010,08,06,02,06,18.40
2010,08,06,02,07,18.50
2010,08,06,02,08,18.60
2010,08,06,02,09,18.70
2010,08,06,02,10,18.80
2010,08,06,02,11,18.90
2010,08,06,02,12,18.90
2010,08,06,02,13,18.90
2010,08,06,02,14,19.00
2010,08,06,02,15,19.00
2010,08,06,02,16,19.00
2010,08,06,02,17,19.10
2010,08,06,02,18,19.10
2010,08,06,02,19,19.10
2010,08,06,02,20,19.20
2010,08,06,02,21,19.20
2010,08,06,02,22,19.20
2010,08,06,02,23,19.20
2010,08,06,02,24,19.20
2010,08,06,02,25,19.20
2010,08,06,02,26,19.20
2010,08,06,02,27,19.20
2010,08,06,02,28,19.20
2010,08,06,02,29,19.20
2010,08,06,02,30,19.30
2010,08,06,02,31,19.30
2010,08,06,02,32,19.30
2010,08,06,02,33,19.30
2010,08,06,02,34,19.30
2010,08,06,02,35,19.30
2010,08,06,02,36,19.30
2010,08,06,02,37,19.20
2010,08,06,02,38,19.20
2010,08,06,02,39,19.20
2010,08,06,02,40,19.20
2010,08,06,02,41,19.10
2010,08,06,02,42,19.10
2010,08,06,02,43,19.10
2010,08,06,02,44,19.10
2010,08,06,02,45,19.10
2010,08,06,02,46,19.10
2010,08,06,02,47,19.10
2010,08,06,02,48,19.20
2010,08,06,02,49,19.20
2010,08,06,02,50,19.20
2010,08,06,02,51,19.20
2010,08,06,02,52,19.20
2010,08,06,02,53,19.20
2010,08,06,02,54,19.20
2010,08,06,02,55,19.30
2010,08,06,02,56,19.30
2010,08,06,02,57,19.30
2010,08,06,02,58,19.30
2010,08,06,02,59,19.30
2010,08,06,03,00,19.30
2010,08,06,03,01,19.30
2010,08,06,03,02,19.30
2010,08,06,03,06,19.30
2010,08,06,03,07,19.30
2010,08,06,03,08,19.30
2010,08,06,03,09,19.30
2010,08,06,03,10,19.20
2010,08,06,03,11,19.20
2010,08,06,03,12,19.20
2010,08,06,03,13,19.20
2010,08,06,03,14,19.20
2010,08,06,03,15,19.20
2010,08,06,03,16,19.20
2010,08,06,03,17,19.20
2010,08,06,03,18,19.20
2010,08,06,03,19,19.20
2010,08,06,03,20,19.20
2010,08,06,03,21,19.20
2010,08,06,03,22,19.20
2010,08,06,03,23,19.20
2010,08,06,03,24,19.20
2010,08,06,03,25,19.20
2010,08,06,03,26,19.20
2010,08,06,03,27,19.20
2010,08,06,03,28,19.20
2010,08,06,03,29,19.20
2010,08,06,03,30,19.20
2010,08,06,03,31,19.20
2010,08,06,03,32,19.20
2010,08,06,03,33,19.10
2010,08,06,03,34,19.10
2010,08,06,03,35,19.10
2010,08,06,03,36,19.10
2010,08,06,03,37,19.10
2010,08,06,03,38,19.10
2010,08,06,03,39,19.10
2010,08,06,03,40,19.10
2010,08,06,03,41,19.10
2010,08,06,03,42,19.10
2010,08,06,03,43,19.10
2010,08,06,03,44,19.10
2010,08,06,03,45,19.10
2010,08,06,03,46,19.10
2010,08,06,03,47,19.10
2010,08,06,03,48,19.10
2010,08,06,03,49,19.10
2010,08,06,03,50,19.00
2010,08,06,03,51,19.00
2010,08,06,03,52,19.00
2010,08,06,03,53,19.00
2010,08,06,03,54,19.00
2010,08,06,03,55,19.00
2010,08,06,03,56,19.00
2010,08,06,03,57,18.90
2010,08,06,03,58,18.90
2010,08,06,03,59,18.90
2010,08,06,04,00,18.90
2010,08,06,04,01,18.90
2010,08,06,04,02,19.00
2010,08,06,04,03,19.00
2010,08,06,04,04,19.00
2010,08,06,04,05,19.10
2010,08,06,04,06,19.10
2010,08,06,04,07,19.10
2010,08,06,04,08,19.10
2010,08,06,04,09,19.10
2010,08,06,04,10,19.10
2010,08,06,04,11,19.10
2010,08,06,04,12,19.10
2010,08,06,04,13,19.10
2010,08,06,04,14,19.10
2010,08,06,04,15,19.10
2010,08,06,04,16,19.10
2010,08,06,04,17,19.00
2010,08,06,04,18,19.00
2010,08,06,04,19,18.90
2010,08,06,04,20,18.90
2010,08,06,04,21,18.90
2010,08,06,04,22,18.90
2010,08,06,04,23,18.90
2010,08,06,04,24,18.80
2010,08,06,04,25,18.80
2010,08,06,04,26,18.80
2010,08,06,04,27,18.80
2010,08,06,04,28,18.80
2010,08,06,04,29,18.80
2010,08,06,04,30,18.80
2010,08,06,04,31,18.80
2010,08,06,04,32,18.70
2010,08,06,04,33,18.70
2010,08,06,04,34,18.70
2010,08,06,04,35,18.70
2010,08,06,04,36,18.70
2010,08,06,04,37,18.70
2010,08,06,04,38,18.70
2010,08,06,04,39,18.70
2010,08,06,04,40,18.70
2010,08,06,04,41,18.70
2010,08,06,04,42,18.70
2010,08,06,04,43,18.70
2010,08,06,04,44,18.70
2010,08,06,04,45,18.60
2010,08,06,04,46,18.60
2010,08,06,04,47,18.60
2010,08,06,04,48,18.60
2010,08,06,04,49,18.60
2010,08,06,04,50,18.60
2010,08,06,04,51,18.60
2010,08,06,04,52,18.50
2010,08,06,04,53,18.50
2010,08,06,04,54,18.50
2010,08,06,04,55,18.40
2010,08,06,04,56,18.40
2010,08,06,04,57,18.40
2010,08,06,04,58,18.40
2010,08,06,04,59,18.30
2010,08,06,05,00,18.30
2010,08,06,05,01,18.40
2010,08,06,05,02,18.30
2010,08,06,05,03,18.30
2010,08,06,05,04,18.30
2010,08,06,05,05,18.30
2010,08,06,05,06,18.30
2010,08,06,05,07,18.30
2010,08,06,05,08,18.20
2010,08,06,05,09,18.30
2010,08,06,05,10,18.30
2010,08,06,05,11,18.30
2010,08,06,05,12,18.30
2010,08,06,05,13,18.30
2010,08,06,05,14,18.30
2010,08,06,05,15,18.30
2010,08,06,05,16,18.30
2010,08,06,05,17,18.20
2010,08,06,05,18,18.20
2010,08,06,05,19,18.20
2010,08,06,05,20,18.20
2010,08,06,05,21,18.10
2010,08,06,05,22,18.10
2010,08,06,05,23,18.10
2010,08,06,05,24,18.10
2010,08,06,05,25,18.10
2010,08,06,05,26,18.20
2010,08,06,05,27,18.20
2010,08,06,05,28,18.20
2010,08,06,05,29,18.20
2010,08,06,05,30,18.20
2010,08,06,05,31,18.20
2010,08,06,05,32,18.20
2010,08,06,05,33,18.20
2010,08,06,05,34,18.20
2010,08,06,05,35,18.20
2010,08,06,05,36,18.10
2010,08,06,05,37,18.10
2010,08,06,05,38,18.10
2010,08,06,05,39,18.10
2010,08,06,05,40,18.00
2010,08,06,05,41,18.00
2010,08,06,05,42,18.00
2010,08,06,05,43,17.90
2010,08,06,05,44,17.90
2010,08,06,05,45,17.90
2010,08,06,05,46,17.90
2010,08,06,05,47,17.90
2010,08,06,05,48,17.90
2010,08,06,05,49,17.80
2010,08,06,05,50,17.80
2010,08,06,05,51,17.80
2010,08,06,05,52,17.80
2010,08,06,05,53,17.80
2010,08,06,05,54,17.80
2010,08,06,05,55,17.70
2010,08,06,05,56,17.70
2010,08,06,05,57,17.70
2010,08,06,05,58,17.70
2010,08,06,05,59,17.70
2010,08,06,06,00,17.60
2010,08,06,06,01,17.60
2010,08,06,06,02,17.60
2010,08,06,06,03,17.60
2010,08,06,06,04,17.60
2010,08,06,06,05,17.50
2010,08,06,06,06,17.50
2010,08,06,06,07,17.50
2010,08,06,06,08,17.50
2010,08,06,06,09,17.40
2010,08,06,06,10,17.40
2010,08,06,06,11,17.40
2010,08,06,06,12,17.40
2010,08,06,06,13,17.40
2010,08,06,06,14,17.40
2010,08,06,06,15,17.30
2010,08,06,06,16,17.30
2010,08,06,06,17,17.30
2010,08,06,06,18,17.30
2010,08,06,06,19,17.30
2010,08,06,06,20,17.30
2010,08,06,06,21,17.30
2010,08,06,06,22,17.20
2010,08,06,06,23,17.30
2010,08,06,06,24,17.30
2010,08,06,06,25,17.20
2010,08,06,06,26,17.20
2010,08,06,06,27,17.20
2010,08,06,06,28,17.20
2010,08,06,06,29,17.20
2010,08,06,06,30,17.20
2010,08,06,06,31,17.20
2010,08,06,06,32,17.20
2010,08,06,06,33,17.30
2010,08,06,06,34,17.20
2010,08,06,06,35,17.20
2010,08,06,06,36,17.30
2010,08,06,06,37,17.30
2010,08,06,06,38,17.30
2010,08,06,06,39,17.30
2010,08,06,06,40,17.30
2010,08,06,06,41,17.30
2010,08,06,06,42,17.30
2010,08,06,06,43,17.30
2010,08,06,06,44,17.30
2010,08,06,06,45,17.30
2010,08,06,06,46,17.30
2010,08,06,06,47,17.30
2010,08,06,06,48,17.40
2010,08,06,06,49,17.40
2010,08,06,06,50,17.40
2010,08,06,06,51,17.40
2010,08,06,06,52,17.40
2010,08,06,06,53,17.40
2010,08,06,06,54,17.40
2010,08,06,06,55,17.40
2010,08,06,06,56,17.40
2010,08,06,06,57,17.40
2010,08,06,06,58,17.40
2010,08,06,06,59,17.40
2010,08,06,07,00,17.50
2010,08,06,07,01,17.50
2010,08,06,07,02,17.50
2010,08,06,07,03,17.50
2010,08,06,07,04,17.50
2010,08,06,07,05,17.50
2010,08,06,07,06,17.50
2010,08,06,07,07,17.50
2010,08,06,07,08,17.50
2010,08,06,07,09,17.50
2010,08,06,07,10,17.50
2010,08,06,07,11,17.50
2010,08,06,07,12,17.50
2010,08,06,07,13,17.50
2010,08,06,07,14,17.50
2010,08,06,07,15,17.50
2010,08,06,07,16,17.50
2010,08,06,07,17,17.50
2010,08,06,07,18,17.50
2010,08,06,07,19,17.50
2010,08,06,07,20,17.50
2010,08,06,07,21,17.50
2010,08,06,07,22,17.50
2010,08,06,07,23,17.50
2010,08,06,07,24,17.50
2010,08,06,07,25,17.50
2010,08,06,07,26,17.50
2010,08,06,07,27,17.50
2010,08,06,07,28,17.60
2010,08,06,07,29,17.60
2010,08,06,07,30,17.60
2010,08,06,07,31,17.60
2010,08,06,07,32,17.60
2010,08,06,07,33,17.60
2010,08,06,07,34,17.60
2010,08,06,07,35,17.60
2010,08,06,07,36,17.70
2010,08,06,07,37,17.70
2010,08,06,07,38,17.70
2010,08,06,07,39,17.70
2010,08,06,07,40,17.70
2010,08,06,07,41,17.70
2010,08,06,07,42,17.70
2010,08,06,07,43,17.70
2010,08,06,07,44,17.70
2010,08,06,07,45,17.70
2010,08,06,07,46,17.70
2010,08,06,07,47,17.70
2010,08,06,07,48,17.70
2010,08,06,07,49,17.80
2010,08,06,07,50,17.80
2010,08,06,07,51,17.80
2010,08,06,07,52,17.80
2010,08,06,07,53,17.80
2010,08,06,07,54,17.80
2010,08,06,07,55,17.80
2010,08,06,07,56,17.80
2010,08,06,07,57,17.80
2010,08,06,07,58,17.80
2010,08,06,07,59,17.80
2010,08,06,08,00,17.90
2010,08,06,08,01,17.90
2010,08,06,08,02,17.90
2010,08,06,08,03,17.90
2010,08,06,08,04,17.90
2010,08,06,08,05,17.90
2010,08,06,08,06,17.90
2010,08,06,08,07,18.00
2010,08,06,08,08,18.00
2010,08,06,08,09,18.00
2010,08,06,08,10,18.00
2010,08,06,08,11,18.00
2010,08,06,08,12,18.10
2010,08,06,08,13,18.10
2010,08,06,08,14,18.10
2010,08,06,08,15,18.20
2010,08,06,08,16,18.20
2010,08,06,08,17,18.20
2010,08,06,08,18,18.20
2010,08,06,08,19,18.20
2010,08,06,08,20,18.30
2010,08,06,08,21,18.30
2010,08,06,08,22,18.30
2010,08,06,08,23,18.30
2010,08,06,08,24,18.40
2010,08,06,08,25,18.40
2010,08,06,08,26,18.40
2010,08,06,08,27,18.40
2010,08,06,08,28,18.40
2010,08,06,08,29,18.40
2010,08,06,08,30,18.40
2010,08,06,08,31,18.40
2010,08,06,08,32,18.50
2010,08,06,08,33,18.50
2010,08,06,08,34,18.60
2010,08,06,08,35,18.60
2010,08,06,08,36,18.60
2010,08,06,08,37,18.60
2010,08,06,08,38,18.60
2010,08,06,08,39,18.60
2010,08,06,08,40,18.60
2010,08,06,08,41,18.70
2010,08,06,08,42,18.70
2010,08,06,08,43,18.70
2010,08,06,08,44,18.70
2010,08,06,08,45,18.70
2010,08,06,08,46,18.70
2010,08,06,08,47,18.70
2010,08,06,08,48,18.70
2010,08,06,08,49,18.80
2010,08,06,08,50,18.80
2010,08,06,08,51,18.80
2010,08,06,08,52,18.90
2010,08,06,08,53,18.90
2010,08,06,08,54,18.90
2010,08,06,08,55,18.90
2010,08,06,08,56,18.90
2010,08,06,08,57,18.90
2010,08,06,08,58,18.90
2010,08,06,08,59,19.00
2010,08,06,09,00,19.00
2010,08,06,09,01,19.10
2010,08,06,09,02,19.10
2010,08,06,09,03,19.10
2010,08,06,09,04,19.00
2010,08,06,09,05,19.00
2010,08,06,09,06,19.00
2010,08,06,09,07,19.00
2010,08,06,09,08,19.00
2010,08,06,09,09,18.90
2010,08,06,09,10,19.00
2010,08,06,09,11,19.00
2010,08,06,09,12,19.00
2010,08,06,09,13,19.00
2010,08,06,09,14,19.10
2010,08,06,09,15,19.10
2010,08,06,09,16,19.10
2010,08,06,09,17,19.10
2010,08,06,09,18,19.10
2010,08,06,09,19,19.10
2010,08,06,09,20,19.10
2010,08,06,09,21,19.20
2010,08,06,09,22,19.20
2010,08,06,09,23,19.20
2010,08,06,09,24,19.30
2010,08,06,09,25,19.30
2010,08,06,09,26,19.30
2010,08,06,09,27,19.40
2010,08,06,09,28,19.40
2010,08,06,09,29,19.40
2010,08,06,09,30,19.50
2010,08,06,09,31,19.50
2010,08,06,09,32,19.50
2010,08,06,09,33,19.60
2010,08,06,09,34,19.60
2010,08,06,09,35,19.60
2010,08,06,09,36,19.60
2010,08,06,09,37,19.60
2010,08,06,09,38,19.50
2010,08,06,09,39,19.50
2010,08,06,09,40,19.50
2010,08,06,09,41,19.50
2010,08,06,09,42,19.60
2010,08,06,09,43,19.60
2010,08,06,09,44,19.60
2010,08,06,09,45,19.60
2010,08,06,09,46,19.50
2010,08,06,09,47,19.50
2010,08,06,09,48,19.40
2010,08,06,09,49,19.40
2010,08,06,09,50,19.40
2010,08,06,09,51,19.40
2010,08,06,09,52,19.40
2010,08,06,09,53,19.40
2010,08,06,09,54,19.40
2010,08,06,09,55,19.40
2010,08,06,09,56,19.40
2010,08,06,09,57,19.50
2010,08,06,09,58,19.50
2010,08,06,09,59,19.50
2010,08,06,10,00,19.50
2010,08,06,10,01,19.50
2010,08,06,10,02,19.60
2010,08,06,10,03,19.60
2010,08,06,10,04,19.70
2010,08,06,10,05,19.70
2010,08,06,10,06,19.70
2010,08,06,10,07,19.70
2010,08,06,10,08,19.70
2010,08,06,10,09,19.80
2010,08,06,10,10,19.80
2010,08,06,10,11,19.80
2010,08,06,10,12,19.80
2010,08,06,10,13,19.80
2010,08,06,10,14,19.70
2010,08,06,10,15,19.70
2010,08,06,10,16,19.70
2010,08,06,10,17,19.70
2010,08,06,10,18,19.70
2010,08,06,10,19,19.70
2010,08,06,10,20,19.80
2010,08,06,10,21,19.80
2010,08,06,10,22,19.80
2010,08,06,10,23,19.90
2010,08,06,10,24,19.90
2010,08,06,10,25,19.80
2010,08,06,10,26,19.80
2010,08,06,10,27,19.80
2010,08,06,10,28,19.80
2010,08,06,10,29,19.80
2010,08,06,10,30,19.80
2010,08,06,10,31,19.80
2010,08,06,10,32,19.80
2010,08,06,10,33,19.90
2010,08,06,10,34,19.90
2010,08,06,10,35,20.00
2010,08,06,10,36,20.00
2010,08,06,10,37,20.10
2010,08,06,10,38,20.20
2010,08,06,10,39,20.10
2010,08,06,10,40,20.10
2010,08,06,10,41,20.10
2010,08,06,10,42,20.10
2010,08,06,10,43,20.20
2010,08,06,10,44,20.30
2010,08,06,10,45,20.40
2010,08,06,10,46,20.50
2010,08,06,10,47,20.60
2010,08,06,10,48,20.60
2010,08,06,10,49,20.70
2010,08,06,10,50,20.70
2010,08,06,10,51,20.60
2010,08,06,10,52,20.50
2010,08,06,10,53,20.40
2010,08,06,10,54,20.30
2010,08,06,10,55,20.30
2010,08,06,10,56,20.20
2010,08,06,10,57,20.20
2010,08,06,10,58,20.20
2010,08,06,10,59,20.30
2010,08,06,11,00,20.30
2010,08,06,11,01,20.30
2010,08,06,11,02,20.30
2010,08,06,11,03,20.30
2010,08,06,11,04,20.20
2010,08,06,11,05,20.10
2010,08,06,11,06,20.00
2010,08,06,11,07,19.90
2010,08,06,11,08,19.80
2010,08,06,11,09,19.80
2010,08,06,11,10,19.80
2010,08,06,11,11,19.90
2010,08,06,11,12,20.00
2010,08,06,11,13,20.10
2010,08,06,11,14,20.20
2010,08,06,11,15,20.20
2010,08,06,11,16,20.20
2010,08,06,11,17,20.20
2010,08,06,11,18,20.30
2010,08,06,11,19,20.30
2010,08,06,11,20,20.30
2010,08,06,11,21,20.30
2010,08,06,11,22,20.30
2010,08,06,11,23,20.30
2010,08,06,11,24,20.20
2010,08,06,11,25,20.20
2010,08,06,11,26,20.10
2010,08,06,11,27,20.20
2010,08,06,11,28,20.20
2010,08,06,11,29,20.30
2010,08,06,11,30,20.40
2010,08,06,11,31,20.50
2010,08,06,11,32,20.50
2010,08,06,11,33,20.50
2010,08,06,11,34,20.50
2010,08,06,11,35,20.40
2010,08,06,11,36,20.40
2010,08,06,11,37,20.40
2010,08,06,11,38,20.40
2010,08,06,11,39,20.40
2010,08,06,11,40,20.40
2010,08,06,11,41,20.40
2010,08,06,11,42,20.30
2010,08,06,11,43,20.40
2010,08,06,11,44,20.40
2010,08,06,11,45,20.50
2010,08,06,11,46,20.60
2010,08,06,11,47,20.60
2010,08,06,11,48,20.60
2010,08,06,11,49,20.80
2010,08,06,11,50,21.00
2010,08,06,11,51,21.00
2010,08,06,11,52,20.90
2010,08,06,11,53,20.80
2010,08,06,11,54,20.80
2010,08,06,11,55,20.80
2010,08,06,11,56,20.80
2010,08,06,11,57,20.80
2010,08,06,11,58,20.80
2010,08,06,11,59,20.80
2010,08,06,12,00,20.90
2010,08,06,12,01,20.90
2010,08,06,12,02,21.00
2010,08,06,12,03,21.00
2010,08,06,12,04,21.00
2010,08,06,12,05,21.00
2010,08,06,12,06,21.00
2010,08,06,12,07,21.00
2010,08,06,12,08,20.90
2010,08,06,12,09,20.90
2010,08,06,12,10,20.80
2010,08,06,12,11,20.80
2010,08,06,12,12,20.80
2010,08,06,12,13,20.90
2010,08,06,12,14,20.90
2010,08,06,12,15,21.00
2010,08,06,12,16,21.00
2010,08,06,12,17,21.00
2010,08,06,12,18,21.00
2010,08,06,12,19,21.00
2010,08,06,12,20,21.10
2010,08,06,12,21,21.00
2010,08,06,12,22,21.10
2010,08,06,12,23,21.10
2010,08,06,12,24,21.10
2010,08,06,12,25,21.10
2010,08,06,12,26,21.10
2010,08,06,12,27,21.20
2010,08,06,12,28,21.20
2010,08,06,12,29,21.20
2010,08,06,12,30,21.20
2010,08,06,12,31,21.20
2010,08,06,12,32,21.10
2010,08,06,12,33,21.00
2010,08,06,12,34,21.00
2010,08,06,12,35,21.00
2010,08,06,12,36,20.90
2010,08,06,12,37,20.90
2010,08,06,12,38,20.90
2010,08,06,12,39,21.00
2010,08,06,12,40,21.00
2010,08,06,12,41,21.10
2010,08,06,12,42,21.00
2010,08,06,12,43,21.10
2010,08,06,12,44,21.20
2010,08,06,12,45,21.30
2010,08,06,12,46,21.40
2010,08,06,12,47,21.40
2010,08,06,12,48,21.40
2010,08,06,12,49,21.40
2010,08,06,12,50,21.30
2010,08,06,12,51,21.20
2010,08,06,12,52,21.20
2010,08,06,12,53,21.20
2010,08,06,12,54,21.20
2010,08,06,12,55,21.20
2010,08,06,12,56,21.20
2010,08,06,12,57,21.30
2010,08,06,12,58,21.30
2010,08,06,12,59,21.30
2010,08,06,13,00,21.30
2010,08,06,13,01,21.20
2010,08,06,13,02,21.20
2010,08,06,13,03,21.20
2010,08,06,13,04,21.20
2010,08,06,13,05,21.20
2010,08,06,13,06,21.30
2010,08,06,13,07,21.40
2010,08,06,13,08,21.50
2010,08,06,13,09,21.70
2010,08,06,13,10,21.80
2010,08,06,13,11,22.00
2010,08,06,13,12,22.20
2010,08,06,13,13,22.30
2010,08,06,13,14,22.40
2010,08,06,13,15,22.30
2010,08,06,13,16,22.20
2010,08,06,13,17,22.10
2010,08,06,13,18,22.10
2010,08,06,13,19,22.20
2010,08,06,13,20,22.30
2010,08,06,13,21,22.40
2010,08,06,13,22,22.50
2010,08,06,13,23,22.50
2010,08,06,13,24,22.60
2010,08,06,13,25,22.80
2010,08,06,13,26,22.80
2010,08,06,13,27,22.70
2010,08,06,13,28,22.80
2010,08,06,13,29,22.80
2010,08,06,13,30,22.80
2010,08,06,13,31,22.80
2010,08,06,13,32,22.70
2010,08,06,13,33,22.80
2010,08,06,13,34,22.80
2010,08,06,13,35,22.80
2010,08,06,13,36,22.80
2010,08,06,13,37,22.80
2010,08,06,13,38,22.90
2010,08,06,13,39,23.00
2010,08,06,13,40,23.10
2010,08,06,13,41,23.10
2010,08,06,13,42,23.00
2010,08,06,13,43,23.00
2010,08,06,13,44,23.00
2010,08,06,13,45,23.00
2010,08,06,13,46,23.10
2010,08,06,13,47,23.10
2010,08,06,13,48,23.10
2010,08,06,13,49,23.10
2010,08,06,13,50,23.30
2010,08,06,13,51,23.30
2010,08,06,13,52,23.30
2010,08,06,13,53,23.30
2010,08,06,13,54,23.20
2010,08,06,13,55,23.10
2010,08,06,13,56,23.10
2010,08,06,13,57,23.10
2010,08,06,13,58,23.00
2010,08,06,13,59,23.00
2010,08,06,14,00,22.90
2010,08,06,14,01,22.90
2010,08,06,14,02,23.00
2010,08,06,14,03,22.90
2010,08,06,14,04,22.90
2010,08,06,14,05,22.90
2010,08,06,14,06,22.90
2010,08,06,14,07,22.90
2010,08,06,14,08,23.00
2010,08,06,14,09,23.10
2010,08,06,14,10,23.10
2010,08,06,14,11,23.10
2010,08,06,14,12,23.00
2010,08,06,14,13,23.00
2010,08,06,14,14,22.90
2010,08,06,14,15,22.80
2010,08,06,14,16,22.80
2010,08,06,14,17,22.80
2010,08,06,14,18,22.90
2010,08,06,14,19,22.90
2010,08,06,14,20,22.90
2010,08,06,14,21,22.90
2010,08,06,14,22,22.90
2010,08,06,14,23,23.00
2010,08,06,14,24,23.10
2010,08,06,14,25,23.20
2010,08,06,14,26,23.30
2010,08,06,14,27,23.30
2010,08,06,14,28,23.20
2010,08,06,14,29,23.20
2010,08,06,14,30,23.10
2010,08,06,14,31,23.00
2010,08,06,14,32,22.90
2010,08,06,14,33,22.80
2010,08,06,14,34,22.80
2010,08,06,14,35,22.80
2010,08,06,14,36,22.80
2010,08,06,14,37,22.80
2010,08,06,14,38,22.70
2010,08,06,14,39,22.70
2010,08,06,14,40,22.70
2010,08,06,14,41,22.70
2010,08,06,14,42,22.70
2010,08,06,14,43,22.60
2010,08,06,14,44,22.60
2010,08,06,14,45,22.70
2010,08,06,14,46,22.60
2010,08,06,14,47,22.70
2010,08,06,14,48,22.70
2010,08,06,14,49,22.70
2010,08,06,14,50,22.80
2010,08,06,14,51,22.80
2010,08,06,14,52,23.00
2010,08,06,14,53,23.20
2010,08,06,14,54,23.40
2010,08,06,14,55,23.60
2010,08,06,14,56,23.80
2010,08,06,14,57,23.90
2010,08,06,14,58,23.90
2010,08,06,14,59,24.00
2010,08,06,15,00,24.00
2010,08,06,15,01,24.00
2010,08,06,15,02,24.10
2010,08,06,15,03,24.30
2010,08,06,15,04,24.50
2010,08,06,15,05,24.60
2010,08,06,15,06,24.70
2010,08,06,15,07,24.70
2010,08,06,15,08,24.50
2010,08,06,15,09,24.40
2010,08,06,15,10,24.40
2010,08,06,15,11,24.30
2010,08,06,15,12,24.40
2010,08,06,15,13,24.40
2010,08,06,15,14,24.50
2010,08,06,15,15,24.40
2010,08,06,15,16,24.30
2010,08,06,15,17,24.40
2010,08,06,15,18,24.30
2010,08,06,15,19,24.30
2010,08,06,15,20,24.20
2010,08,06,15,21,24.20
2010,08,06,15,22,24.20
2010,08,06,15,23,24.20
2010,08,06,15,24,24.10
2010,08,06,15,25,24.10
2010,08,06,15,26,24.20
2010,08,06,15,27,24.20
2010,08,06,15,28,24.20
2010,08,06,15,29,24.20
2010,08,06,15,30,24.20
2010,08,06,15,31,24.20
2010,08,06,15,32,24.20
2010,08,06,15,33,24.20
2010,08,06,15,34,24.20
2010,08,06,15,35,24.20
2010,08,06,15,36,24.20
2010,08,06,15,37,24.20
2010,08,06,15,38,24.20
2010,08,06,15,39,24.10
2010,08,06,15,40,24.00
2010,08,06,15,41,24.10
2010,08,06,15,42,24.20
2010,08,06,15,43,24.30
2010,08,06,15,44,24.30
2010,08,06,15,45,24.20
2010,08,06,15,46,24.20
2010,08,06,15,47,24.20
2010,08,06,15,48,24.20
2010,08,06,15,49,24.20
2010,08,06,15,50,24.30
2010,08,06,15,51,24.40
2010,08,06,15,52,24.50
2010,08,06,15,53,24.60
2010,08,06,15,54,24.70
2010,08,06,15,55,24.90
2010,08,06,15,56,25.00
2010,08,06,15,57,25.10
2010,08,06,15,58,25.20
2010,08,06,15,59,25.30
2010,08,06,16,00,25.20
2010,08,06,16,01,25.00
2010,08,06,16,02,24.80
2010,08,06,16,03,24.70
2010,08,06,16,04,24.70
2010,08,06,16,05,24.60
2010,08,06,16,06,24.40
2010,08,06,16,07,24.20
2010,08,06,16,08,24.10
2010,08,06,16,09,24.00
2010,08,06,16,10,23.90
2010,08,06,16,11,24.00
2010,08,06,16,12,24.10
2010,08,06,16,13,24.20
2010,08,06,16,14,24.20
2010,08,06,16,15,24.20
2010,08,06,16,16,24.20
2010,08,06,16,17,24.10
2010,08,06,16,18,24.10
2010,08,06,16,19,24.10
2010,08,06,16,20,24.20
2010,08,06,16,21,24.20
2010,08,06,16,22,24.30
2010,08,06,16,23,24.40
2010,08,06,16,24,24.50
2010,08,06,16,25,24.50
2010,08,06,16,26,24.60
2010,08,06,16,27,24.70
2010,08,06,16,28,24.70
2010,08,06,16,29,24.70
2010,08,06,16,30,24.60
2010,08,06,16,31,24.60
2010,08,06,16,32,24.50
2010,08,06,16,33,24.30
2010,08,06,16,34,24.30
2010,08,06,16,35,24.30
2010,08,06,16,36,24.20
2010,08,06,16,37,24.20
2010,08,06,16,38,24.30
2010,08,06,16,39,24.30
2010,08,06,16,40,24.30
2010,08,06,16,41,24.30
2010,08,06,16,42,24.40
2010,08,06,16,43,24.50
2010,08,06,16,44,24.60
2010,08,06,16,45,24.60
2010,08,06,16,46,24.80
2010,08,06,16,47,24.90
2010,08,06,16,48,25.00
2010,08,06,16,49,24.90
2010,08,06,16,50,24.80
2010,08,06,16,51,24.80
2010,08,06,16,52,24.70
2010,08,06,16,53,24.60
2010,08,06,16,54,24.60
2010,08,06,16,55,24.60
2010,08,06,16,56,24.60
2010,08,06,16,57,24.70
2010,08,06,16,58,24.80
2010,08,06,16,59,24.80
2010,08,06,17,00,24.90
2010,08,06,17,01,24.90
2010,08,06,17,02,24.80
2010,08,06,17,03,24.80
2010,08,06,17,04,24.90
2010,08,06,17,05,24.90
2010,08,06,17,06,24.80
2010,08,06,17,07,24.80
2010,08,06,17,08,24.70
2010,08,06,17,09,24.70
2010,08,06,17,10,24.50
2010,08,06,17,11,24.50
2010,08,06,17,12,24.40
2010,08,06,17,13,24.40
2010,08,06,17,14,24.50
2010,08,06,17,15,24.50
2010,08,06,17,16,24.60
2010,08,06,17,17,24.60
2010,08,06,17,18,24.60
2010,08,06,17,19,24.50
2010,08,06,17,20,24.40
2010,08,06,17,21,24.40
2010,08,06,17,22,24.30